Home > Weather > Talcahuano > Past weeks

Flag for Chile Past Weather in Talcahuano, Chile — Yesterday and Last 2 Weeks

Now
41 °F

Clear.


Feels Like: 41 °F
Forecast: 49 / 54 °F
Wind: 2 mph from Southeast

Location: Concepcion Airport

Current Time: Aug 27, 2016 at 2:07:59 AM

Latest Report: Aug 27, 2016 at 1:00 AM


Visibility: 10 mi

Pressure: 30.15 "Hg

Humidity: 93%

Dew Point: 39 °F

Location of TalcahuanoLocation

Past Weather in Talcahuano — Graph

°F

Talcahuano Temperature Yesterday

Maximum temperature yesterday: 57 °F (at 4:00 PM)
Minimum temperature yesterday: 39 °F (at 7:00 AM)
Average temperature yesterday: 48 °F

High & Low Weather Summary for the Past Weeks

 TemperatureHumidityPressure
High68 °F (Aug 21, 3:00 PM)100% (Aug 12, 2:00 AM)30.42 "Hg (Aug 12, 2:00 AM)
Low39 °F (Aug 21, 6:00 AM)24% (Aug 21, 2:00 PM)29.86 "Hg (Aug 16, 4:00 AM)
Average53 °F85%30.12 "Hg
* Reported Aug 12 12:00 AM — Aug 27 1:00 AM, Talcahuano, Weather by CustomWeather, © 2016

Note: Actual official high and low records may vary slightly from our data, if they occured in-between our weather recording intervals... More about our weather records

Advertising

Talcahuano Weather History for the Previous 24 Hours

Scroll right to see more
 ConditionsComfort  
Time TempWeatherWind HumidityBarometerVisibility
1:00 AM
Sat, Aug 27
41 °FClear.2 mph93%30.15 "Hg10 mi
12:00 AM45 °FClear.3 mph87%30.15 "Hg10 mi
11:00 PM
Fri, Aug 26
46 °FClear.6 mph82%30.15 "Hg10 mi
10:00 PM48 °FClear.9 mph82%30.15 "Hg10 mi
9:00 PM52 °FClear.13 mph72%30.15 "Hg10 mi
8:00 PM52 °FPassing clouds.14 mph72%30.15 "HgN/A
7:00 PM54 °FPassing clouds.15 mph67%30.12 "HgN/A
6:00 PM55 °FPassing clouds.16 mph63%30.12 "HgN/A
5:00 PM57 °FPassing clouds.15 mph59%30.15 "HgN/A
4:00 PM57 °FPassing clouds.15 mph63%30.15 "HgN/A
3:00 PM55 °FPassing clouds.10 mph67%30.18 "HgN/A
2:00 PM55 °FPassing clouds.8 mph67%30.21 "HgN/A
1:00 PM55 °FPassing clouds.8 mph59%30.24 "HgN/A
12:00 PM52 °FPassing clouds.10 mph72%30.24 "HgN/A
11:00 AM48 °FSunny.5 mph87%30.24 "Hg10 mi
10:00 AM43 °FSunny.2 mph100%30.24 "Hg10 mi
9:00 AM39 °FSnow. Fog.3 mph100%30.24 "HgN/A
8:00 AM39 °FClear.2 mph93%30.21 "Hg10 mi
7:00 AM39 °FClear.3 mph100%30.21 "Hg10 mi
6:00 AM41 °FFog.3 mph100%30.21 "Hg5 mi
5:00 AM41 °FFog.5 mph100%30.18 "Hg2 mi
4:00 AM41 °FFog.2 mph100%30.18 "Hg4 mi
3:00 AM43 °FFog.1 mph93%30.18 "Hg4 mi
2:00 AM43 °FQuite cool.1 mph93%30.18 "Hg1 mi
Weather by CustomWeather, © 2016

See weather overviewHow to use our weather pages